Location: Newark
(51.3318°N, 0.0053°E)
Time: 01:31:20
(UTC+00:00)

ITUPSAT 1 - Pass Details

Date: 08 July 2022
Orbit: 701 x 711 km, 98.6° (Epoch: 09 August)

Event Time Altitude Azimuth Distance (km) Brightness Sun altitude
Rises 21:03:53 0° 12° (NNE) 3,117 ? -6.2°
Reaches altitude 10° 21:06:10 10° 9° (N) 2,195 ? -6.5°
Maximum altitude 21:10:54 59° 290° (WNW) 821 ? -7.0°
Drops below altitude 10° 21:15:35 10° 212° (SSW) 2,183 ? -7.4°
Sets 21:17:52 0° 209° (SSW) 3,099 ? -7.6°
